Date,TemperatureHighF,TemperatureAvgF,TemperatureLowF,DewpointHighF,DewpointAvgF,DewpointLowF,HumidityHigh,HumidityAvg,HumidityLow,PressureMaxIn,PressureMinIn,WindSpeedMaxMPH,WindSpeedAvgMPH,GustSpeedMaxMPH,PrecipitationSumIn
2012-1-1,54,44,33,47,39,31,95,83,58,30.08,29.64,5,1,8,0.14
2012-1-2,46,39,29,45,23,17,94,54,37,29.78,29.62,6,2,20,0.00
2012-1-3,30,25,14,24,9,-2,82,52,36,30.11,29.77,8,3,14,0.00
2012-1-4,26,20,12,13,5,-2,64,52,33,30.18,29.94,5,2,8,0.00
2012-1-5,41,32,24,23,18,12,78,57,43,29.94,29.80,5,1,9,0.00
2012-1-6,51,38,27,31,28,22,87,68,41,29.92,29.70,5,1,8,0.00
2012-1-7,62,44,29,39,32,27,93,68,33,29.94,29.67,5,1,12,0.00
2012-1-8,44,37,28,30,24,17,82,60,44,30.29,29.94,5,2,11,0.00
2012-1-9,42,33,27,28,21,13,79,63,33,30.29,29.96,3,1,5,0.00
2012-1-10,47,37,28,30,26,22,85,64,48,29.96,29.82,4,1,10,0.00
2012-1-11,48,37,26,39,29,23,92,73,44,30.07,29.80,5,1,10,0.08
2012-1-12,45,43,41,43,41,39,95,93,87,29.80,29.37,11,4,16,0.80
2012-1-13,49,36,28,47,28,12,96,72,47,29.77,29.19,8,3,17,0.06
2012-1-14,33,29,26,18,15,11,63,56,48,30.06,29.77,5,2,10,0.00
2012-1-15,26,20,15,12,-1,-8,55,40,25,30.59,30.05,6,4,12,0.00
2012-1-16,35,24,11,29,11,1,82,59,35,30.61,30.16,4,1,8,0.00
2012-1-17,43,39,34,42,37,29,96,92,79,30.16,29.53,3,1,5,0.21
2012-1-18,47,35,21,46,20,9,97,54,34,30.19,29.53,9,4,18,0.00
2012-1-19,36,27,16,26,16,8,79,64,49,30.27,29.93,4,1,9,0.00
2012-1-20,35,29,24,23,11,3,70,48,31,30.29,29.93,7,2,20,0.00
2012-1-21,27,23,19,19,15,8,87,71,45,30.32,30.10,2,1,7,0.00
2012-1-22,33,24,12,28,18,8,84,76,64,30.54,30.32,5,1,9,0.03
2012-1-23,52,40,33,51,38,28,96,92,82,30.43,29.88,6,1,9,0.58
2012-1-24,54,46,38,50,39,32,96,78,55,30.12,29.88,5,2,10,0.00
2012-1-25,44,39,35,32,27,25,70,61,52,30.32,30.12,5,2,15,0.00
2012-1-26,39,36,33,37,32,25,95,85,67,30.24,29.83,2,0,3,0.22
2012-1-27,57,47,39,56,42,31,97,85,57,29.85,29.32,7,2,13,0.34
2012-1-28,48,42,33,31,28,15,82,58,36,30.04,29.85,6,2,9,0.00
2012-1-29,44,37,29,21,16,10,59,42,32,30.19,30.02,5,2,11,0.00
2012-1-30,40,36,29,26,17,11,67,47,30,30.30,30.00,6,3,15,0.00
2012-1-31,59,46,35,34,27,17,69,49,30,30.26,30.01,5,2,8,0.00
2012-2-1,48,43,42,34,33,32,72,67,58,30.01,29.96,2,1,3,0.00
2012-2-2,44,40,35,34,29,22,89,64,55,30.24,30.00,6,2,11,0.00
2012-2-3,44,36,29,25,20,16,74,53,36,30.46,30.25,5,2,11,0.00
2012-2-4,47,38,30,27,25,23,77,59,42,30.34,30.11,4,1,7,0.00
2012-2-5,40,33,27,24,20,18,77,61,43,30.18,30.09,4,1,6,0.00
2012-2-6,53,38,24,28,24,20,86,61,34,30.16,29.95,5,1,7,0.00
2012-2-7,50,39,29,30,27,23,88,64,43,30.24,29.94,7,2,12,0.00
2012-2-8,37,33,29,29,19,10,91,59,34,30.33,30.10,2,0,5,0.00
2012-2-9,46,34,25,28,22,13,93,66,27,30.14,30.06,5,1,10,0.02
2012-2-10,47,36,25,29,24,20,89,62,38,30.14,29.92,5,1,11,0.00
2012-2-11,38,35,31,34,28,20,95,76,55,29.92,29.56,5,1,9,0.09
2012-2-12,34,26,19,22,9,-6,72,48,30,29.97,29.67,9,4,20,0.00
2012-2-13,31,28,27,17,15,13,60,57,53,30.02,29.95,4,2,7,0.00
2012-2-14,47,42,36,38,23,11,93,49,24,30.11,30.00,3,1,6,0.03
2012-2-15,46,40,32,40,36,29,95,85,67,30.28,30.06,3,0,7,0.04
2012-2-16,42,36,28,41,34,26,96,92,80,30.30,30.02,2,0,4,0.20
2012-2-17,51,43,32,44,33,20,96,71,34,30.02,29.92,6,2,12,0.03
2012-2-18,49,38,28,37,26,19,93,65,33,30.08,29.87,6,1,10,0.04
2012-2-19,44,36,28,30,24,18,93,66,36,30.09,29.94,5,1,11,0.01
2012-2-20,46,35,26,21,18,10,72,51,27,30.34,29.97,6,2,15,0.00
2012-2-21,47,36,22,37,27,18,86,70,40,30.36,29.85,8,2,11,0.00
2012-2-22,59,48,36,40,34,26,91,62,30,29.85,29.47,5,2,8,0.00
2012-2-23,59,48,40,42,34,26,93,62,35,29.77,29.37,7,2,13,0.00
2012-2-24,45,39,35,40,36,25,96,88,46,29.76,29.33,6,2,13,0.84
2012-2-25,46,40,33,31,22,9,66,49,35,30.01,29.40,8,5,16,0.00
2012-2-26,39,32,28,15,13,11,54,47,38,30.39,30.02,6,4,13,0.00
2012-2-27,58,47,27,36,30,21,81,54,31,30.43,30.07,6,2,8,0.00
2012-2-28,50,43,34,29,23,20,68,46,33,30.39,30.11,7,3,13,0.00
2012-2-29,41,38,34,38,32,22,94,78,56,30.38,29.74,5,2,13,0.36
2012-3-1,40,39,37,38,36,33,95,92,84,29.97,29.66,6,1,10,0.16
2012-3-2,42,37,33,38,31,27,93,80,74,30.13,29.81,5,2,10,0.10
2012-3-3,56,47,40,50,36,17,97,72,26,29.81,29.44,5,2,9,0.13
2012-3-4,46,40,34,25,22,17,67,49,34,29.75,29.56,5,2,7,0.00
2012-3-5,44,35,28,23,12,-5,67,39,22,30.39,29.75,6,3,12,0.00
2012-3-6,45,34,23,25,13,2,66,44,23,30.62,30.39,4,2,10,0.00
2012-3-7,62,48,31,44,31,21,86,55,30,30.58,30.30,5,2,9,0.00
2012-3-8,72,61,49,50,48,43,84,63,44,30.30,29.81,8,4,12,0.00
2012-3-9,64,44,35,49,26,15,87,51,28,30.26,29.80,10,4,16,0.04
2012-3-10,42,35,28,21,14,8,57,41,29,30.52,30.26,7,3,13,0.00
2012-3-11,61,53,40,32,27,18,61,37,27,30.51,30.31,5,3,11,0.00
2012-3-12,71,53,36,41,35,31,84,54,24,30.34,30.11,4,1,6,0.00
2012-3-13,74,62,52,57,51,41,94,70,47,30.11,29.89,6,2,10,0.04
2012-3-14,70,60,46,53,31,16,93,41,15,30.18,29.95,6,2,9,0.00
2012-3-15,52,46,42,43,40,36,91,82,57,30.33,30.18,4,2,8,0.00
2012-3-16,51,45,42,46,43,40,95,91,82,30.31,30.11,2,0,3,0.02
2012-3-17,64,50,38,51,43,37,97,80,56,30.37,30.17,4,1,7,0.00
2012-3-18,64,52,45,52,46,42,92,81,64,30.37,30.19,5,1,7,0.00
2012-3-19,76,59,45,58,50,44,96,74,50,30.23,30.14,5,1,7,0.00
2012-3-20,74,61,50,60,54,48,94,79,55,30.33,30.22,4,1,6,0.00
2012-3-25,50,47,45,43,43,42,89,85,76,29.76,29.73,0,0,1,0.05
2012-3-26,56,45,34,45,24,4,96,52,21,30.11,29.68,10,5,20,0.00
2012-3-27,52,39,29,21,5,-1,49,25,13,30.28,30.11,7,3,17,0.00
2012-3-28,67,52,37,50,36,19,84,54,41,30.15,29.53,5,2,9,0.03
2012-3-29,61,55,49,50,38,31,72,54,42,29.90,29.56,9,5,17,0.00
2012-3-30,44,41,35,28,26,24,69,55,50,30.03,30.01,4,2,0,0.01
2012-4-1,47,46,46,46,45,45,96,95,95,29.66,29.62,1,0,1,0.33
2012-4-2,56,48,37,45,30,14,96,58,22,29.87,29.59,8,3,14,0.09
2012-4-3,63,49,30,30,22,15,82,41,17,29.94,29.75,6,2,11,0.00
2012-4-4,68,57,46,39,29,20,68,37,19,29.76,29.51,9,3,13,0.00
2012-4-5,46,40,34,31,28,25,82,65,43,29.83,29.73,5,1,7,0.00
2012-4-8,65,61,54,32,25,18,40,26,17,29.76,29.64,7,3,15,0.00
2012-4-9,65,56,47,32,24,18,52,30,17,29.73,29.59,8,4,19,0.00
2012-4-10,62,50,38,38,31,24,77,51,28,29.79,29.65,6,2,11,0.00
2012-4-11,53,48,40,36,32,27,82,56,37,29.89,29.77,4,2,9,0.01
2012-4-12,60,50,39,39,34,28,81,55,31,30.09,29.89,6,2,13,0.00
2012-4-13,64,56,36,36,29,22,87,40,22,30.21,30.09,4,2,9,0.00
2012-4-14,73,58,37,42,32,25,82,43,17,30.21,30.00,4,1,6,0.00
2012-4-15,76,67,60,58,53,39,85,62,42,30.02,29.94,4,1,9,0.00
2012-4-16,87,70,55,61,56,53,93,66,36,30.01,29.89,4,1,6,0.00
2012-4-17,78,69,60,60,43,30,89,44,18,30.15,29.90,5,2,9,0.00
2012-4-18,62,56,48,43,34,28,68,46,30,30.26,30.12,3,1,6,0.00
2012-4-19,69,57,48,50,46,40,95,70,36,30.12,30.00,3,1,6,0.10
2012-4-20,73,59,46,54,48,41,94,70,42,30.03,29.86,3,1,9,0.00
2012-4-21,74,64,57,59,57,54,95,79,57,29.86,29.65,5,2,8,0.12
2012-4-22,57,49,46,54,46,43,95,91,75,29.79,29.30,5,2,12,1.96
2012-4-23,55,49,44,54,45,36,96,86,70,29.39,29.13,6,2,11,0.34
2012-4-24,58,50,41,38,33,24,84,56,27,29.70,29.38,4,2,8,0.00
2012-4-25,63,49,36,40,35,28,94,63,29,29.91,29.70,4,1,7,0.00
2012-4-26,61,50,36,54,44,34,96,84,61,29.92,29.58,3,1,5,0.01
2012-4-27,56,48,40,55,33,26,96,58,40,30.15,29.58,6,4,14,0.00
2012-4-28,59,48,34,34,28,23,82,49,26,30.24,30.08,4,1,8,0.00
2012-4-29,63,51,35,36,26,15,91,44,18,30.25,30.06,6,2,10,0.00
2012-4-30,62,49,34,43,30,20,80,51,23,30.35,30.20,4,1,7,0.00
2012-5-1,66,57,51,58,52,42,96,82,63,30.20,29.97,3,1,6,0.66
2012-5-2,54,52,50,50,48,46,92,88,83,30.19,30.08,2,1,4,0.05
2012-5-3,59,55,51,54,52,48,96,91,83,30.17,30.08,2,0,3,0.31
2012-5-4,73,62,54,64,58,52,96,87,70,30.11,29.84,2,0,5,0.20
2012-5-5,63,59,56,58,56,53,93,89,78,30.05,29.88,2,0,3,0.00
2012-5-6,65,58,51,56,50,44,91,76,55,30.12,30.03,3,0,4,0.00
2012-5-7,67,56,47,54,48,43,93,75,52,30.15,30.09,3,0,4,0.02
2012-5-8,66,60,55,57,52,43,94,78,62,30.09,29.82,5,1,10,0.07
2012-5-9,68,63,58,66,61,57,97,94,87,29.84,29.58,2,0,4,0.52
2012-5-10,67,57,46,57,48,36,97,73,40,29.83,29.50,5,2,13,0.22
2012-5-11,69,58,44,43,38,29,88,51,25,30.11,29.83,4,1,8,0.00
2012-5-12,78,61,42,52,42,34,90,56,22,30.23,30.11,3,0,7,0.00
2012-5-13,81,69,55,59,53,45,87,60,29,30.18,30.06,2,0,7,0.00
2012-5-14,70,65,62,63,60,56,96,85,67,30.15,30.09,3,0,3,0.07
2012-5-15,65,62,60,63,61,59,96,94,86,30.12,29.94,3,0,7,0.39
2012-5-16,73,65,62,67,63,61,97,93,76,29.95,29.83,1,0,2,0.18
2012-5-17,70,62,52,60,45,37,90,55,32,30.14,29.90,4,1,8,0.00
2012-5-18,72,64,51,50,44,39,81,51,36,30.24,30.16,3,1,4,0.00
2012-5-19,80,62,45,53,48,43,94,64,32,30.19,30.09,2,0,4,0.00
2012-5-20,79,66,50,55,44,31,93,52,23,30.25,30.16,4,1,7,0.00
2012-5-21,64,61,58,61,57,44,96,87,48,30.23,30.01,2,1,7,1.26
2012-5-22,69,64,60,66,62,59,97,94,86,30.01,29.81,2,0,5,0.25
2012-5-23,78,68,63,68,64,61,96,88,70,30.05,29.86,3,0,5,0.18
2012-5-24,67,65,61,65,63,60,96,93,91,30.21,30.05,1,0,4,0.27
2012-5-25,75,66,60,68,63,59,97,92,78,30.21,30.12,2,1,6,0.01
2012-5-26,87,74,66,73,69,64,96,85,60,30.14,30.05,3,0,7,0.01
2012-5-27,82,76,68,69,65,58,96,72,50,30.18,30.01,2,0,3,0.55
2012-5-28,87,77,68,74,70,67,97,80,55,30.01,29.89,2,0,3,0.00
2012-5-29,91,79,70,75,70,63,96,77,52,29.90,29.67,6,1,11,0.25
2012-5-30,76,71,66,70,67,60,97,87,62,29.78,29.70,2,0,4,0.03
2012-5-31,81,70,61,64,57,47,96,66,34,29.93,29.71,3,1,8,0.00
2012-6-1,74,64,55,61,56,51,90,75,59,30.01,29.80,4,1,8,0.01
2012-6-2,77,67,57,66,58,49,96,76,51,29.80,29.65,3,1,9,0.65
2012-6-3,76,59,51,57,52,49,95,79,44,29.77,29.66,3,0,7,0.02
2012-6-4,63,58,53,57,52,46,95,82,63,29.82,29.62,2,1,5,0.31
2012-6-5,64,57,48,53,49,46,93,75,59,29.93,29.81,3,1,6,0.00
2012-6-8,81,68,54,62,56,50,97,71,37,29.95,29.82,3,0,0,0.00
2012-6-9,76,67,60,66,61,57,93,81,56,29.98,29.86,2,0,0,0.00
2012-6-10,72,67,66,65,64,63,94,92,74,30.19,30.12,1,0,1,0.04
2012-6-11,78,69,64,66,60,48,96,75,40,30.25,30.17,3,1,6,0.05
2012-6-12,73,67,64,68,64,59,96,90,78,30.19,29.91,3,1,5,0.78
2012-6-13,72,67,63,67,64,60,96,89,72,30.07,29.86,4,1,10,0.19
2012-6-14,76,68,60,64,60,56,96,79,61,30.26,30.07,3,1,3,0.00
2012-6-15,79,68,60,63,56,51,96,70,41,30.31,30.25,3,1,5,0.00
2012-6-16,79,70,57,59,56,50,90,64,38,30.34,30.23,3,1,6,0.00
2012-6-17,73,66,62,60,57,55,82,75,61,30.25,30.10,2,1,5,0.00
2012-6-18,60,60,60,53,53,53,78,78,78,30.15,30.15,1,1,1,0.00
2012-6-20,78,78,78,72,72,71,82,82,81,30.06,30.06,0,0,1,0.00
2012-6-22,90,77,70,77,70,68,96,81,49,29.82,29.73,5,0,5,0.48
2012-6-23,84,74,65,69,62,52,96,70,37,29.99,29.81,4,1,13,0.00
2012-6-24,83,72,59,66,59,50,95,67,35,30.02,29.89,3,0,5,0.01
2012-6-25,72,67,58,69,65,57,96,93,79,29.89,29.65,3,0,7,1.06
2012-6-26,72,63,52,58,53,49,96,72,46,29.74,29.66,6,2,12,0.00
2012-6-27,81,70,57,58,52,46,85,57,31,29.80,29.68,5,1,15,0.00
2012-6-28,88,74,60,65,59,54,88,62,37,29.81,29.67,3,0,4,0.00
2012-6-29,92,80,69,76,70,63,95,72,49,29.69,29.58,3,0,5,0.21
2012-6-30,92,80,70,71,65,57,89,62,32,29.75,29.63,3,1,5,0.00
2012-7-1,93,78,67,72,67,64,93,71,43,29.83,29.72,4,0,7,0.00
2012-7-2,86,75,64,67,60,52,92,63,37,29.89,29.81,4,1,8,0.00
2012-7-3,88,76,62,68,62,56,93,66,35,29.93,29.78,3,0,6,0.00
2012-7-4,90,80,71,73,70,66,95,71,50,29.83,29.67,3,0,9,0.11
2012-7-5,90,79,73,74,69,51,93,74,28,29.83,29.68,4,1,7,0.00
2012-7-6,90,79,66,70,65,53,95,68,29,29.90,29.81,2,0,4,0.00
2012-7-7,93,81,72,74,70,66,92,69,43,29.83,29.73,5,0,12,0.00
2012-7-8,90,80,72,73,66,58,96,66,35,29.84,29.75,2,1,5,0.10
2012-7-9,85,76,66,62,60,53,83,60,36,29.93,29.83,3,1,5,0.00
2012-7-10,85,75,63,65,59,50,91,61,31,30.05,29.93,3,1,6,0.00
2012-7-11,85,76,68,69,64,58,86,67,46,30.15,30.05,3,1,6,0.00
2012-7-12,72,70,68,63,63,61,85,79,69,30.16,30.15,0,0,1,0.00
2012-7-14,85,78,74,67,64,62,75,62,54,30.12,30.09,3,1,5,0.01
2012-7-15,86,77,72,76,71,66,95,82,66,30.12,29.89,4,0,4,0.09
2012-7-16,88,78,69,73,69,66,96,76,49,29.91,29.74,3,1,7,0.04
2012-7-17,95,82,67,70,67,63,93,64,38,29.82,29.69,3,1,6,0.00
2012-7-18,100,83,74,75,72,68,95,72,38,29.86,29.71,5,0,11,0.09
2012-7-19,78,73,70,73,65,55,96,77,51,29.97,29.84,3,0,7,0.01
2012-7-20,72,66,63,66,63,61,95,91,79,30.03,29.91,2,1,8,0.71
2012-7-21,78,69,61,64,59,48,96,74,37,30.09,30.01,3,1,6,0.00
2012-7-22,84,73,63,65,62,59,95,70,45,30.13,30.07,3,1,5,0.00
2012-7-23,87,75,68,75,69,64,95,81,62,30.09,29.76,2,0,3,0.16
2012-7-24,90,79,70,76,68,58,96,72,44,29.77,29.55,5,1,9,0.01
2012-7-25,83,74,61,60,56,53,83,57,37,29.87,29.71,3,1,9,0.00
2012-7-26,87,75,68,74,68,60,95,78,56,29.77,29.57,6,0,10,0.26
2012-7-27,87,78,70,74,71,68,96,80,56,29.83,29.64,3,0,7,0.01
2012-7-28,79,73,69,73,70,67,96,90,79,29.91,29.83,3,0,4,1.26
2012-7-29,78,71,67,70,68,66,97,89,68,30.02,29.85,1,0,4,0.02
2012-7-30,81,74,68,68,66,64,92,78,61,30.09,30.02,2,1,7,0.00
2012-7-31,79,72,67,68,66,64,93,82,65,30.06,29.89,2,0,3,0.00
2012-8-1,79,72,68,74,70,65,96,93,79,29.90,29.81,2,0,3,0.24
2012-8-2,86,76,67,72,69,64,97,80,53,29.88,29.81,2,0,4,0.00
2012-8-3,90,80,70,76,71,67,96,77,54,30.06,29.88,2,0,5,0.01
2012-8-4,90,80,72,77,72,64,95,78,46,30.16,30.06,3,1,8,0.00
2012-8-5,91,81,73,77,74,70,96,80,52,30.16,29.90,4,1,7,0.10
2012-8-6,85,77,67,73,66,58,96,72,43,29.99,29.92,4,1,12,0.00
2012-8-7,81,72,61,67,63,56,95,74,47,30.00,29.92,2,0,3,0.00
2012-8-8,87,76,66,72,67,57,96,76,38,29.96,29.89,2,0,3,0.00
2012-8-9,89,78,70,74,71,66,96,78,49,29.93,29.83,3,1,7,0.00
2012-8-10,80,76,72,75,72,70,95,89,81,29.86,29.72,2,0,3,0.36
2012-8-11,86,78,71,76,72,69,96,81,60,29.87,29.76,3,1,7,0.00
2012-8-12,86,77,69,71,65,60,91,68,42,29.92,29.84,3,1,5,0.00
2012-8-13,84,74,63,65,61,57,94,68,41,29.98,29.90,4,1,8,0.00
2012-8-14,79,72,63,70,66,61,94,82,65,29.94,29.84,2,0,3,0.00
2012-8-15,83,73,66,73,68,65,96,87,65,29.86,29.79,4,1,9,0.63
2012-8-16,83,72,64,68,63,57,97,77,45,29.89,29.82,3,1,5,0.00
2012-8-17,87,74,62,70,64,61,96,73,45,29.86,29.72,3,1,6,0.00
2012-8-18,77,68,60,66,61,54,96,80,46,29.91,29.81,2,1,8,0.47
2012-8-19,73,65,56,62,58,54,96,79,52,29.96,29.89,3,0,6,0.00
2012-8-20,78,70,60,63,60,57,95,74,49,29.91,29.80,2,0,5,0.00
2012-8-21,79,70,62,64,61,56,94,73,47,30.07,29.90,3,0,6,0.00
2012-8-22,82,70,62,69,63,57,95,81,43,30.12,30.06,3,0,4,0.05
2012-8-23,84,72,62,67,63,58,96,78,44,30.14,30.06,2,0,4,0.00
2012-8-24,85,74,64,68,63,55,96,72,38,30.15,30.09,2,0,4,0.00
2012-8-25,83,73,66,70,65,59,94,76,57,30.25,30.15,2,0,5,0.00
2012-8-26,81,72,64,67,64,61,94,78,55,30.30,30.20,2,1,6,0.00
2012-8-27,80,73,65,73,69,64,95,87,70,30.21,29.92,2,1,5,0.09
2012-8-28,84,77,69,74,67,57,96,75,44,29.92,29.76,4,1,12,0.36
2012-8-29,76,68,60,62,56,50,94,68,40,29.99,29.87,4,1,8,0.00
2012-8-30,80,67,54,58,54,42,96,67,27,30.07,29.99,3,0,5,0.00
2012-8-31,89,73,58,65,60,54,96,68,31,30.03,29.86,3,0,6,0.00
2012-9-1,74,70,68,67,64,62,87,80,68,29.95,29.88,1,0,4,0.00
2012-9-2,80,76,71,70,69,67,95,79,66,30.06,29.98,2,0,5,1.34
2012-9-3,75,72,69,70,66,61,96,84,66,30.13,30.04,2,1,4,0.01
2012-9-4,80,74,70,74,71,65,96,89,77,30.08,29.80,2,0,4,0.18
2012-9-5,80,75,68,76,71,66,96,89,69,29.80,29.74,2,1,4,0.07
2012-9-6,79,71,65,70,67,64,96,87,70,29.88,29.79,1,0,3,0.00
2012-9-7,86,76,66,73,69,65,96,81,62,29.90,29.79,2,0,5,0.00
2012-9-8,83,74,64,76,69,63,96,87,73,29.83,29.52,4,1,8,0.64
2012-9-9,75,67,60,63,59,53,97,78,48,29.86,29.74,3,0,7,0.01
2012-9-10,72,62,53,59,51,43,95,69,43,30.11,29.86,5,1,12,0.00
2012-9-11,70,58,46,52,48,44,96,74,43,30.25,30.11,2,0,6,0.00
2012-9-12,54,53,52,51,51,50,94,93,90,30.27,30.25,0,0,0,0.00
2012-9-15,59,57,54,51,50,50,87,79,72,30.08,30.07,0,0,0,0.02
2012-9-16,72,60,49,55,50,48,96,74,43,30.10,30.00,3,0,8,0.00
2012-9-17,75,62,49,58,52,47,95,73,45,30.09,29.99,2,0,4,0.00
2012-9-18,76,71,64,70,67,58,96,88,79,30.00,29.59,7,3,14,0.86
2012-9-19,68,62,51,67,51,41,96,71,39,30.16,29.70,4,1,9,0.00
2012-9-20,68,58,47,58,52,45,96,81,67,30.18,30.08,3,0,6,0.00
2012-9-21,72,63,56,58,56,54,95,79,56,30.09,29.98,2,0,5,0.00
2012-9-22,75,67,55,68,63,53,96,86,69,29.98,29.75,4,1,7,0.29
2012-9-23,66,59,49,63,50,41,97,76,43,30.09,29.82,4,1,9,0.01
2012-9-24,65,54,46,51,45,39,96,75,43,30.14,30.06,3,0,5,0.00
2012-9-25,71,58,43,56,48,42,96,74,43,30.17,30.08,3,1,6,0.00
2012-9-26,74,67,61,65,60,55,89,79,70,30.12,29.98,2,0,5,0.00
2012-9-27,73,67,63,65,61,54,96,83,64,30.14,30.01,2,0,5,0.06
2012-9-28,69,64,60,65,61,54,96,91,69,30.14,29.91,2,1,6,0.44
2012-9-29,63,60,58,57,56,54,92,86,73,29.92,29.84,2,0,5,0.00
2012-9-30,67,58,52,55,52,48,93,79,56,29.86,29.73,3,0,6,0.00
2012-10-1,68,58,47,54,50,45,93,77,56,29.94,29.79,3,1,5,0.00
2012-10-2,67,61,56,61,58,54,95,91,71,30.00,29.93,2,0,2,0.51
2012-10-3,70,66,62,69,65,61,96,95,95,30.08,29.95,1,0,6,0.24
2012-10-4,73,69,64,70,66,61,96,92,87,30.10,30.00,1,0,3,0.00
2012-10-5,76,66,58,62,59,56,95,80,55,30.05,29.90,1,0,4,0.00
2012-10-6,76,62,51,64,55,45,94,79,62,29.97,29.72,5,1,8,0.00
2012-10-7,53,50,44,50,45,40,93,86,72,30.09,29.97,1,0,3,0.13
2012-10-8,54,48,40,47,44,38,95,85,65,30.25,30.08,2,0,4,0.02
2012-10-9,58,54,48,52,50,46,93,86,79,30.21,30.06,2,0,4,0.01
2012-10-10,66,57,53,58,52,40,95,81,55,30.06,29.76,4,1,8,0.06
2012-10-11,58,51,44,41,39,33,81,65,40,30.14,29.93,3,0,4,0.00
2012-10-12,56,46,40,45,38,30,93,74,49,30.40,30.04,6,1,8,0.02
2012-10-13,52,43,31,42,31,22,91,66,32,30.50,30.28,3,0,5,0.00
2012-10-14,69,59,49,56,50,42,84,72,56,30.28,29.92,3,1,5,0.00
2012-10-15,70,64,59,62,59,55,92,84,73,29.92,29.61,2,1,6,0.25
2012-10-16,59,52,43,57,43,37,92,72,49,29.90,29.62,6,2,12,0.00
2012-10-17,61,48,37,47,41,34,94,78,47,29.99,29.89,2,0,5,0.00
2012-10-18,66,53,40,56,47,38,95,81,56,30.02,29.92,3,1,7,0.00
2012-10-19,64,62,60,62,60,56,95,90,84,29.92,29.80,3,2,5,0.47
2012-10-21,64,56,46,45,43,39,86,63,41,29.99,29.90,4,1,9,0.01
2012-10-22,66,53,43,48,44,39,93,73,43,30.08,29.97,5,1,7,0.00
2012-10-23,62,53,46,54,49,44,95,86,67,30.10,30.03,2,0,3,0.02
2012-10-24,58,56,55,56,53,52,95,91,84,30.17,30.06,1,0,4,0.04
2012-10-25,61,58,54,54,52,51,89,82,75,30.25,30.17,2,0,7,0.00
2012-10-26,64,60,56,58,55,51,91,84,74,30.21,30.09,1,0,2,0.00
2012-10-27,66,61,58,58,55,53,92,82,68,30.09,29.89,2,0,5,0.00
2012-10-28,60,58,56,54,48,42,85,70,59,29.89,29.64,6,3,10,0.00
2012-10-29,62,57,54,60,52,47,93,82,72,29.65,28.54,15,8,34,0.45
2012-10-30,55,53,48,51,48,42,90,82,75,29.45,28.92,8,4,13,0.22
2012-10-31,52,47,44,42,40,38,87,76,60,29.56,29.44,3,1,7,0.01
2012-11-1,53,47,40,41,39,36,89,75,60,29.58,29.52,3,1,6,0.01
2012-11-2,55,48,43,40,36,32,81,66,46,29.73,29.57,5,2,14,0.00
2012-11-3,52,44,40,35,32,31,73,63,47,29.91,29.73,7,3,13,0.00
2012-11-4,52,42,34,35,32,29,86,67,51,29.96,29.89,5,1,9,0.00
2012-11-5,46,39,28,30,26,23,85,60,46,30.15,29.94,5,2,10,0.00
2012-11-6,42,32,24,26,22,16,90,68,36,30.22,30.06,3,0,8,0.00
2012-11-7,40,35,32,34,28,19,94,77,49,30.06,29.75,6,2,10,0.08
2012-11-8,47,38,32,34,29,24,94,73,47,29.88,29.70,6,2,10,0.47
2012-11-9,53,42,33,34,28,22,84,58,35,30.17,29.88,6,2,10,0.05
2012-11-10,55,44,34,43,38,32,94,79,57,30.40,30.17,1,0,3,0.00
2012-11-11,64,50,39,51,44,36,94,82,53,30.46,30.38,4,1,9,0.00
2012-11-12,66,54,40,58,50,39,97,88,70,30.44,30.16,5,1,12,0.00
2012-11-13,62,48,39,58,43,30,92,82,64,30.42,30.08,5,2,9,0.14
2012-11-14,48,38,30,32,28,25,86,68,49,30.50,30.42,5,1,10,0.00
2012-11-15,46,36,29,31,28,25,88,75,47,30.44,30.27,4,0,7,0.00
2012-11-16,36,32,30,30,28,25,90,83,74,30.42,30.26,0,0,0,0.00
2012-11-17,52,37,27,34,29,24,93,75,45,30.61,30.42,4,1,7,0.00
2012-11-18,42,31,29,34,28,27,94,91,72,30.65,30.60,2,0,3,0.00
2012-11-19,48,38,31,38,34,29,94,86,65,30.33,30.22,2,0,5,0.00
2012-11-20,50,38,28,36,32,27,95,80,47,30.23,30.08,2,0,4,0.00
2012-11-21,53,40,30,36,31,28,93,74,38,30.21,30.11,3,1,8,0.00
2012-11-22,54,39,29,42,34,27,95,83,61,30.24,30.10,2,0,4,0.02
2012-11-23,39,32,30,38,30,29,96,95,94,30.10,29.99,0,0,1,0.00
2012-11-24,45,39,33,24,20,16,58,47,38,29.81,29.67,8,4,13,0.00
2012-11-25,42,36,32,24,21,15,60,53,45,29.92,29.80,5,2,10,0.00
2012-11-26,49,38,28,27,23,19,82,57,32,30.22,29.91,5,1,11,0.00
2012-11-27,36,34,28,33,30,24,92,86,74,30.26,30.17,2,0,3,0.23
2012-11-28,41,34,26,32,27,22,93,79,56,30.24,30.14,4,1,8,0.23
2012-11-29,45,34,26,28,25,22,87,70,45,30.33,30.23,4,1,7,0.01
2012-11-30,46,36,28,35,29,24,90,75,48,30.43,30.28,4,1,8,0.00
2012-12-1,40,38,35,37,32,26,89,79,70,30.51,30.40,3,2,8,0.00
2012-12-2,49,44,40,45,41,37,95,90,81,30.40,30.08,3,0,4,0.11
2012-12-3,61,49,40,52,44,38,96,84,57,30.23,30.06,4,1,10,0.01
2012-12-4,62,50,40,56,48,39,96,92,75,30.24,29.94,2,0,4,0.15
2012-12-5,54,48,34,52,37,20,95,68,43,30.20,29.87,7,3,14,0.00
2012-12-6,40,32,26,22,19,15,85,61,37,30.34,30.19,4,1,8,0.00
2012-12-7,40,33,26,39,31,22,95,90,83,30.25,29.99,0,0,1,0.16
2012-12-8,49,45,40,48,43,39,96,95,94,29.99,29.83,1,0,2,0.24
2012-12-9,47,43,41,46,40,35,95,89,74,30.23,29.96,4,1,5,0.06
2012-12-10,56,51,45,54,50,43,96,96,94,29.79,29.51,1,0,2,0.04
2012-12-11,54,45,38,53,36,29,96,74,52,30.17,29.53,6,2,11,0.04
2012-12-12,44,37,31,31,27,24,87,68,47,30.41,30.17,3,0,4,0.00
2012-12-13,45,35,28,32,26,24,90,73,43,30.44,30.29,3,0,6,0.00
2012-12-14,28,26,25,25,24,22,89,88,88,30.29,30.23,0,0,0,0.00
2012-12-18,54,48,43,49,43,33,96,82,66,29.57,29.41,5,2,9,0.53
2012-12-19,48,42,36,33,29,25,72,60,46,30.08,29.57,8,3,19,0.00
2012-12-20,44,37,27,40,29,23,89,74,58,30.18,29.80,4,1,9,0.04
2012-12-21,57,46,37,55,39,28,94,79,65,29.76,29.05,13,5,18,1.15
2012-12-22,40,37,36,31,23,18,80,57,47,29.78,29.28,8,4,25,0.01
2012-12-23,42,36,29,26,22,18,72,56,41,29.91,29.78,5,2,9,0.00
2012-12-24,39,32,24,31,24,19,89,71,51,30.06,29.91,2,0,5,0.00
2012-12-25,42,36,29,34,30,24,93,81,65,30.23,29.88,5,1,11,0.12
2012-12-26,37,31,26,34,26,18,92,81,59,30.26,29.47,12,4,21,0.53
2012-12-27,39,36,30,36,30,20,93,82,66,29.81,29.25,11,5,18,0.64
2012-12-28,38,32,26,25,22,19,89,69,57,30.05,29.80,7,2,15,0.00
2012-12-29,33,30,25,30,27,22,92,87,78,30.02,29.47,3,1,7,0.00
2012-12-30,35,30,27,28,18,14,91,63,44,30.13,29.55,9,4,17,0.08
2012-12-31,39,32,23,25,20,14,72,62,53,30.16,29.85,4,2,8,0.08
2013-1-1,39,36,26,29,24,11,70,62,50,29.98,29.79,6,2,9,0.03